Regional Weather Roundup
Issued by NWS

Home | Current Version | Previous Version | Text Only | Print | Product List | Glossary On
Versions: 1 2 3 4 5 6 7 8 9 10 11 12 13 14 15 16 17 18 19 20 21 22 23 24 25 26 27 28 29 30 31 32 33 34 35 36 37 38 39 40 41 42 43 44 45 46 47 48 49 50
000
ASUS44 KFWD 272201
RWRTX
NORTH TEXAS HOURLY WEATHER ROUNDUP
NATIONAL WEATHER SERVICE FORT WORTH TX
500 PM CDT MON APR 27 2015

NOTE: "FAIR" INDICATES FEW OR NO CLOUDS BELOW 12,000 FEET WITH NO
SIGNIFICANT WEATHER AND/OR OBSTRUCTIONS TO VISIBILITY.

TXZ118-119-272300-
DALLAS/FORT WORTH METROPLEX

CITY           SKY/WX    TMP DP  RH WIND       PRES   REMARKS
DFW AIRPORT    CLOUDY    67  57  70 E14       29.73S
DALLAS LOVE    CLOUDY    69  57  65 E13       29.73F
FTW MEACHAM    LGT RAIN  67  59  75 NE13      29.73R
DAL-EXECUTIVE  CLOUDY    68  57  68 E13       29.72F
FTW-ALLIANCE   CLOUDY    65  58  78 N10       29.74F
FTW-NAS-JRB    LGT RAIN  67  61  81 N14       29.74R
FTW-SPINKS     PTSUNNY   70  61  73 E12       29.73F
ARLINGTON      CLOUDY    69  57  65 E13       29.72F
GRAND PRAIRIE  PTSUNNY   68  59  73 NE12G23   29.73F
ADDISON        CLOUDY    68  55  64 E13G28    29.73F
MESQUITE       CLOUDY    66  57  72 NE6       29.74F
LANCASTER      CLOUDY    65  57  75 NE9       29.74F
$$

TXZ091>094-102>105-117-120-121-131>134-272300-
NORTH CENTRAL TEXAS

CITY           SKY/WX    TMP DP  RH WIND       PRES   REMARKS
SHRMAN/DENISON CLOUDY    65  60  81 NE6       29.80F
BRIDGEPORT     LGT RAIN  61  61 100 N7        29.79F
DECATUR        LGT RAIN  59  58  98 NE9       29.78F
DENTON         LGT RAIN  64  57  78 NE9       29.76S
MCKINNEY       CLOUDY    66  57  72 NE9       29.75F
ROCKWALL       CLOUDY    68  58  70 E10G17    29.74F
TERRELL        LGT RAIN  70  58  65 E8        29.75S
WAXAHACHIE     CLOUDY    66  60  80 CALM      29.74F
GRANBURY       DRIZZLE   65  62  91 N6        29.75S
$$

TXZ083>090-098>101-113>116-127>130-139>142-154-155-272300-
WESTERN NORTH TEXAS

CITY           SKY/WX    TMP DP  RH WIND       PRES   REMARKS
WICHITA FALLS  CLOUDY    62  56  80 E20       29.81R
WF-KICKAPOO    CLOUDY    64  58  79 E15       29.81R
ABILENE        PTSUNNY   73  49  42 N16       29.77S
ABILENE-DYESS  MOSUNNY   71  52  50 N12G21    29.76S
BRECKENRIDGE   MOSUNNY   73  51  46 N8G20     29.76F HAZE
MINERAL WELLS  MOSUNNY   66  60  81 N13       29.75R
STEPHENVILLE   MOSUNNY   73  57  57 NW15      29.76R
COMANCHE       MOSUNNY   73  58  58 N12       29.74F
$$

TXZ143>147-156>162-174-175-272300-
CENTRAL TEXAS

CITY           SKY/WX    TMP DP  RH WIND       PRES   REMARKS
WACO           PTSUNNY   78  64  61 NE7       29.69F
WACO-MCGREGOR  PTSUNNY   79  63  57 N5        29.70S
CORSICANA      PTSUNNY   75  63  66 NE9       29.71F
MEXIA          PTSUNNY   75  66  73 E5        29.69S
HEARNE         MOSUNNY   80  69  67 NW8       29.67F
TEMPLE         PTSUNNY   79  63  57 N8        29.68S
KILLEEN        PTSUNNY   80  54  40 NW12      29.69S
KILLEEN-SKYLRK PTSUNNY   81  55  41 N7        29.69F
FORT HOOD      PTSUNNY   80  57  46 NW6       29.68S
HAMILTON       MOSUNNY   77  52  41 NW10G20   29.72F
LAMPASAS       PTSUNNY   77  58  52 N6        29.70F
$$

TXZ095>097-106>112-122>126-135>138-148>153-164>167-272300-
EAST TEXAS

CITY           SKY/WX    TMP DP  RH WIND       PRES   REMARKS
PARIS          PTSUNNY   68  50  52 MISG      29.80F
SULPHUR SPRNGS CLOUDY    69  55  60 E13       29.79F
GILMER         MOSUNNY   72  56  57 E13G18    29.76S
MINEOLA        CLOUDY    72  57  60 CALM      29.77S
TYLER          CLOUDY    73  59  61 E8        29.74R
LONGVIEW       PTSUNNY   73  58  59 E12G20    29.74S
ATHENS         CLOUDY    70  61  73 E7        29.71F
PALESTINE      CLOUDY   N/A N/A N/A E5        29.72F
JACKSONVILLE   CLOUDY    72  61  68 E6        29.75S
NACOGDOCHES    CLOUDY    72  61  68 E10       29.71F
LUFKIN           N/A     75  64  68 E9        29.70F
$$

SUPPLEMENTAL OBSERVATIONS (CENTRAL)

CITY           SKY/WX    TMP DP  RH WIND       PRES   REMARKS
$$

SUPPLEMENTAL OBSERVATIONS (WEST)

CITY           SKY/WX    TMP DP  RH WIND       PRES   REMARKS
$$

SUPPLEMENTAL OBSERVATIONS (EAST)

CITY           SKY/WX    TMP DP  RH WIND       PRES   REMARKS
$$

SUPPLEMENTAL OBSERVATIONS ARE A COLLECTION OF AUTOMATED INSTRUMENTS
THAT ARE MAINTAINED BY A VARIETY OF FEDERAL AND STATE AGENCIES.
CERTAIN ELEMENTS...SUCH AS HUMIDITY VALUES AND SUSTAINED WIND
SPEEDS...MAY BE APPROXIMATED.




USA.gov is the U.S. government's official web portal to all federal, state and local government web resources and services.